Flag for Switzerland Weather past 2 weeks in Buchs, St. Gallen, Switzerland

Now
43 °F

Quite cool.


Feels Like: 35 °F
Forecast: 33 / 43 °F
Wind: 14 mph from North

Location: Vaduz

Current Time: Dec 20, 2014 at 10:15:34 PM

Latest Report: Dec 20, 2014 at 9:00 PM


Visibility: N/A

Pressure: 30.45 "Hg

Humidity: 58%

Dew point: 29 °F

Location of BuchsLocation

Historic Weather in Buchs — Graph

°F

Buchs temperature yesterday

Maximum temperature yesterday: 50 °F (at 3:00 PM)
Minimum temperature yesterday: 44 °F (at 2:00 AM)
Average temperature yesterday: 47 °F

Past Weeks' High & Low Weather Summary

 TemperatureHumidityPressure
High59 °F (Dec 13, 2:00 PM)98% (Dec 16, 9:00 AM)30.49 "Hg (Dec 16, 9:00 AM)
Low29 °F (Dec 10, 7:00 AM)27% (Dec 12, 11:00 PM)29.83 "Hg (Dec 12, 11:00 PM)
Average43 °F76%30.14 "Hg
* Reported Dec 5 9:00 PM — Dec 20 9:00 PM, Buchs, Weather by CustomWeather, © 2014

Note: Actual official high and low records may vary slightly from our data, if they occured in-between our weather recording intervals... More about our weather records

Advertising

Buchs weather history for previous 24 hours

 ConditionsComfort  
Time TempWeatherWind HumidityBarometerVisibility
9:00 PM
Dec 20
43 °FQuite cool.14 mph58%30.45 "HgN/A
8:00 PM43 °FQuite cool.22 mph60%30.41 "HgN/A
7:00 PM44 °FOvercast.13 mph66%30.38 "Hg6 mi
6:00 PM43 °FQuite cool.2 mph87%30.34 "HgN/A
5:00 PM44 °FQuite cool.1 mph85%30.31 "HgN/A
4:00 PM46 °FFog.3 mph80%30.29 "Hg5 mi
3:00 PM50 °FCool.3 mph68%30.27 "HgN/A
2:00 PM50 °FCool.8 mph71%30.28 "HgN/A
1:00 PM49 °FFog.7 mph77%30.31 "Hg5 mi
12:00 PM49 °FCool.3 mph79%30.34 "HgN/A
11:00 AM47 °FCool.3 mph81%30.36 "HgN/A
10:00 AM44 °FFog.3 mph90%30.36 "Hg4 mi
9:00 AM44 °FQuite cool.2 mph92%30.36 "HgN/A
8:00 AM44 °FQuite cool.2 mph93%30.35 "HgN/A
7:00 AM44 °FDrizzle. Overcast.2 mph94%30.34 "Hg3 mi
6:00 AM45 °FCool.1 mph90%30.33 "HgN/A
5:00 AM46 °FCool.7 mph90%30.31 "HgN/A
4:00 AM47 °FFog.6 mph84%30.30 "Hg4 mi
3:00 AM47 °FCool.7 mph86%30.29 "HgN/A
2:00 AM48 °FCool.7 mph81%30.27 "HgN/A
1:00 AM46 °FCool.7 mph90%30.27 "HgN/A
12:00 AM47 °FCool.6 mph84%30.26 "HgN/A
11:00 PM
Dec 19
46 °FCool.7 mph87%30.26 "HgN/A
Weather by CustomWeather, © 2014

See weather overviewHow to use our weather pages